This demonstration page uses our WeatherBlox Daily Observations layout. Learn more.

Left ArrowRight Arrow

Hourly Observations for December 1, 2019

Temp ( °F °C ) Dew Point ( °F °C ) Humidity (%) Winds ( mph kmh ) Pressure ( in mb ) Visibility ( mi km ) Precip ( " mm )
12:56 am 00:56 Cloudy 29 -1.7 22 -5.6 75 75 NW 31 50 29.77 1008 10 16 0.00 0.00
1:47 am 01:47 Partly Cloudy 28 -2 21 -6 74 74 NW 28 44 29.85 1011 10 16 0.00 0.00
1:56 am 01:56 Mostly Clear 28 -2.2 21 -6.1 75 75 NW 28 44 29.81 1009 10 16 0.00 0.00
2:17 am 02:17 Mostly Cloudy 28 -2 21 -6 74 74 NNW 28 44 29.88 1012 10 16 0.00 0.00
2:56 am 02:56 Cloudy 28 -2.2 23 -5 81 81 NW 23 37 29.84 1010 10 16 0.00 0.00
3:56 am 03:56 Cloudy 27 -2.8 20 -6.7 75 75 NNW 25 41 29.87 1012 10 16 0.00 0.00
4:46 am 04:46 Mostly Cloudy 28 -2 21 -6 74 74 NNW 32 52 29.91 1013 10 16 0.00 0.00
4:56 am 04:56 Partly Cloudy 27 -2.8 21 -6.1 78 78 NNW 25 41 29.88 1012 10 16 0.00 0.00
5:14 am 05:14 Mostly Cloudy 28 -2 21 -6 74 74 NNW 24 39 29.94 1014 10 16 0.00 0.00
5:56 am 05:56 Windy with Snow Likely 29 -1.7 23 -5 78 78 NNW 28 44 29.91 1013 9 14 0.00 0.00
6:56 am 06:56 Windy with Snow Likely 29 -1.7 23 -5 78 78 NNW 31 50 29.94 1014 9 14 0.00 0.00
7:56 am 07:56 Windy with Snow Likely 28 -2.2 23 -5 81 81 NNW 26 43 29.98 1015 9 14 0.00 0.00
8:38 am 08:38 Cloudy 28 -2 21 -6 74 74 NNW 29 46 30.03 1017 10 16 0.00 0.00
8:45 am 08:45 Cloudy 28 -2 21 -6 74 74 NNW 28 44 30.03 1017 10 16 0.00 0.00
8:56 am 08:56 Cloudy 29 -1.7 22 -5.6 75 75 NNW 24 39 30.01 1016 10 16 0.00 0.00
9:56 am 09:56 Windy with Snow Likely 29 -1.7 23 -5 78 78 NNW 30 48 30.06 1018 9 14 0.00 0.00
10:56 am 10:56 Windy with Snow Likely 30 -1.1 24 -4.4 79 79 NNW 25 41 30.08 1019 9 14 0.00 0.00
11:56 am 11:56 Cloudy 31 -0.6 24 -4.4 76 76 NNW 23 37 30.08 1019 10 16 0.00 0.00
12:56 pm 12:56 Cloudy 32 0 23 -5 69 69 NNW 28 44 30.09 1019 10 16 0.00 0.00
1:10 pm 13:10 Mostly Cloudy 32 0 21 -6 64 64 NNW 26 43 30.12 1020 10 16 0.00 0.00
1:56 pm 13:56 Mostly Sunny 33 0.6 23 -5 66 66 NW 24 39 30.09 1019 10 16 0.00 0.00
2:56 pm 14:56 Mostly Cloudy 33 0.6 21 -6.1 61 61 NNW 23 37 30.14 1021 10 16 0.00 0.00
3:04 pm 15:04 Mostly Cloudy 34 1 21 -6 60 60 NNW 22 35 30.18 1022 10 16 0.00 0.00
3:56 pm 15:56 Sunny 32 0 20 -6.7 61 61 NNW 17 28 30.17 1022 10 16 0.00 0.00
4:56 pm 16:56 Sunny 31 -0.6 22 -5.6 69 69 NW 13 20 30.22 1024 10 16 0.00 0.00
5:56 pm 17:56 Clear 28 -2.2 22 -5.6 78 78 NNW 15 24 30.22 1024 10 16 0.00 0.00
6:56 pm 18:56 Clear 27 -2.8 21 -6.1 78 78 NNW 10 17 30.23 1024 10 16 0.00 0.00
7:56 pm 19:56 Clear 25 -3.9 21 -6.1 85 85 NW 9 15 30.25 1025 10 16 0.00 0.00
8:56 pm 20:56 Clear 25 -3.9 21 -6.1 85 85 NW 8 13 30.27 1025 10 16 0.00 0.00
9:56 pm 21:56 Clear 23 -5 20 -6.7 88 88 WNW 10 17 30.29 1026 10 16 0.00 0.00
10:56 pm 22:56 Clear 24 -4.4 21 -6.1 88 88 NNW 9 15 30.27 1025 10 16 0.00 0.00
11:56 pm 23:56 Clear 22 -5.6 19 -7.2 89 89 NNW 7 11 30.27 1025 10 16 0.00 0.00

Powered by AerisWeather